| time (UTC) | temp C | wind direction | speed KPH | gust KPH | rain 1hr cm | rain 24hr cm | rain mn cm | humidity % | barometer mb |
| 20260831181554 | 13 | 0 | 0.0 | 3.2 | 0.00 | 0.00 | 0.00 | 64 | 1028.5 |
| 20260831180054 | 13 | 190 | 0.0 | 3.2 | 0.00 | 0.00 | 0.00 | 63 | 1028.5 |
| 20260831174551 | 14 | 172 | 1.6 | 4.8 | 0.00 | 0.00 | 0.00 | 62 | 1028.4 |
| 20260831173046 | 13 | 168 | 0.0 | 3.2 | 0.00 | 0.00 | 0.00 | 63 | 1028.1 |
| 20260831171603 | 14 | 0 | 0.0 | 3.2 | 0.00 | 0.00 | 0.00 | 62 | 1027.8 |
| 20260831170052 | 15 | 0 | 0.0 | 3.2 | 0.00 | 0.00 | 0.00 | 60 | 1027.7 |
| 20260831164549 | 15 | 96 | 0.0 | 4.8 | 0.00 | 0.00 | 0.00 | 58 | 1027.6 |
| 20260831163054 | 15 | 79 | 1.6 | 3.2 | 0.00 | 0.00 | 0.00 | 59 | 1027.3 |
| 20260831161603 | 16 | 0 | 0.0 | 0.0 | 0.00 | 0.00 | 0.00 | 57 | 1027.2 |
| 20260831160117 | 17 | 169 | 0.0 | 3.2 | 0.00 | 0.00 | 0.00 | 52 | 1027.1 |
| 20260831154618 | 18 | 0 | 0.0 | 3.2 | 0.00 | 0.00 | 0.00 | 52 | 1027.0 |
| 20260831153129 | 18 | 0 | 0.0 | 3.2 | 0.00 | 0.00 | 0.00 | 47 | 1027.0 |
| 20260831151558 | 20 | 202 | 1.6 | 4.8 | 0.00 | 0.00 | 0.00 | 47 | 1027.0 |
| 20260831150053 | 20 | 199 | 0.0 | 6.4 | 0.00 | 0.00 | 0.00 | 47 | 1026.9 |
| 20260831144549 | 20 | 206 | 1.6 | 8.0 | 0.00 | 0.00 | 0.00 | 49 | 1026.8 |
| 20260831143056 | 20 | 202 | 3.2 | 9.7 | 0.00 | 0.00 | 0.00 | 48 | 1026.8 |
| 20260831141557 | 20 | 177 | 3.2 | 9.7 | 0.00 | 0.00 | 0.00 | 49 | 1026.7 |
| 20260831140052 | 20 | 215 | 3.2 | 9.7 | 0.00 | 0.00 | 0.00 | 48 | 1026.6 |
| 20260831134548 | 20 | 190 | 3.2 | 11.3 | 0.00 | 0.00 | 0.00 | 49 | 1026.5 |
| 20260831133047 | 20 | 227 | 4.8 | 9.7 | 0.00 | 0.00 | 0.00 | 48 | 1026.4 |
| 20260831131550 | 20 | 229 | 1.6 | 12.9 | 0.00 | 0.00 | 0.00 | 47 | 1026.5 |
| 20260831130059 | 20 | 206 | 4.8 | 9.7 | 0.00 | 0.00 | 0.00 | 48 | 1026.3 |
| 20260831124553 | 20 | 130 | 3.2 | 8.0 | 0.00 | 0.00 | 0.00 | 48 | 1026.5 |
| 20260831123051 | 19 | 59 | 1.6 | 9.7 | 0.00 | 0.00 | 0.00 | 49 | 1026.6 |
| 20260831121558 | 19 | 225 | 1.6 | 11.3 | 0.00 | 0.00 | 0.00 | 51 | 1026.6 |
| 20260831120139 | 18 | 179 | 4.8 | 14.5 | 0.00 | 0.00 | 0.00 | 54 | 1026.5 |
| 20260831114548 | 18 | 207 | 4.8 | 22.5 | 0.00 | 0.00 | 0.00 | 55 | 1026.6 |
| 20260831113059 | 18 | 215 | 4.8 | 12.9 | 0.00 | 0.00 | 0.00 | 58 | 1026.9 |
| 20260831111556 | 18 | 229 | 4.8 | 8.0 | 0.00 | 0.00 | 0.00 | 55 | 1027.0 |
| 20260831110049 | 17 | 229 | 6.4 | 11.3 | 0.00 | 0.00 | 0.00 | 55 | 1027.1 |
| 20260831104549 | 17 | 53 | 1.6 | 8.0 | 0.00 | 0.00 | 0.00 | 64 | 1027.6 |
| 20260831103049 | 17 | 227 | 3.2 | 8.0 | 0.00 | 0.00 | 0.00 | 58 | 1027.8 |
| 20260831101606 | 16 | 186 | 3.2 | 6.4 | 0.00 | 0.00 | 0.00 | 63 | 1028.3 |
| 20260831100051 | 16 | 232 | 3.2 | 8.0 | 0.00 | 0.00 | 0.00 | 62 | 1028.4 |
| 20260831094601 | 16 | 41 | 3.2 | 6.4 | 0.00 | 0.00 | 0.00 | 62 | 1028.8 |
| 20260831093058 | 15 | 88 | 1.6 | 6.4 | 0.00 | 0.00 | 0.00 | 65 | 1029.4 |
| 20260831091553 | 15 | 217 | 1.6 | 6.4 | 0.00 | 0.00 | 0.00 | 67 | 1029.7 |
| 20260831090047 | 14 | 0 | 0.0 | 3.2 | 0.00 | 0.00 | 0.00 | 67 | 1030.0 |
| 20260831084554 | 13 | 139 | 0.0 | 6.4 | 0.00 | 0.00 | 0.00 | 71 | 1030.2 |
| 20260831083058 | 13 | 193 | 3.2 | 6.4 | 0.00 | 0.00 | 0.00 | 72 | 1030.4 |
| 20260831081557 | 13 | 211 | 1.6 | 4.8 | 0.00 | 0.00 | 0.00 | 72 | 1030.6 |
| 20260831080049 | 13 | 182 | 3.2 | 11.3 | 0.00 | 0.00 | 0.00 | 74 | 1030.8 |
| 20260831074559 | 12 | 200 | 3.2 | 14.5 | 0.00 | 0.00 | 0.00 | 76 | 1030.9 |
| 20260831073051 | 12 | 189 | 4.8 | 11.3 | 0.00 | 0.00 | 0.00 | 77 | 1030.8 |
| 20260831071552 | 12 | 157 | 4.8 | 6.4 | 0.00 | 0.00 | 0.00 | 76 | 1030.5 |
| 20260831070125 | 11 | 244 | 1.6 | 9.7 | 0.00 | 0.00 | 0.00 | 78 | 1030.3 |
| 20260831064604 | 10 | 235 | 3.2 | 9.7 | 0.00 | 0.00 | 0.00 | 79 | 1030.4 |
| 20260831063102 | 10 | 248 | 3.2 | 9.7 | 0.00 | 0.00 | 0.00 | 80 | 1030.4 |
| 20260831061606 | 10 | 213 | 3.2 | 11.3 | 0.00 | 0.00 | 0.00 | 81 | 1030.3 |
| 20260831060109 | 10 | 0 | 1.6 | 6.4 | 0.00 | 0.00 | 0.00 | 81 | 1030.1 |
| 20260831054554 | 9 | 265 | 3.2 | 6.4 | 0.00 | 0.00 | 0.00 | 82 | 1030.1 |
| 20260831053106 | 9 | 13 | 4.8 | 6.4 | 0.00 | 0.00 | 0.00 | 83 | 1029.8 |
| 20260831051603 | 8 | 18 | 3.2 | 4.8 | 0.00 | 0.00 | 0.00 | 84 | 1029.5 |
| 20260831050100 | 8 | 9 | 0.0 | 3.2 | 0.00 | 0.00 | 0.00 | 84 | 1029.8 |
| 20260831044554 | 8 | 0 | 0.0 | 3.2 | 0.00 | 0.00 | 0.00 | 84 | 1029.8 |
| 20260831043048 | 8 | 58 | 0.0 | 3.2 | 0.00 | 0.00 | 0.00 | 84 | 1029.6 |
| 20260831041544 | 8 | 225 | 0.0 | 3.2 | 0.00 | 0.00 | 0.00 | 85 | 1029.5 |
| 20260831040058 | 8 | 199 | 1.6 | 6.4 | 0.00 | 0.00 | 0.00 | 84 | 1029.4 |
| 20260831034558 | 8 | 211 | 3.2 | 8.0 | 0.00 | 0.00 | 0.00 | 83 | 1029.3 |
| 20260831033050 | 8 | 186 | 3.2 | 9.7 | 0.00 | 0.00 | 0.00 | 82 | 1028.9 |
| 20260831031558 | 8 | 197 | 3.2 | 6.4 | 0.00 | 0.00 | 0.00 | 82 | 1028.7 |
| 20260831030051 | 8 | 181 | 3.2 | 8.0 | 0.00 | 0.00 | 0.00 | 81 | 1028.2 |
| 20260831024559 | 9 | 202 | 3.2 | 8.0 | 0.00 | 0.00 | 0.00 | 79 | 1028.3 |
| 20260831023050 | 9 | 198 | 1.6 | 6.4 | 0.00 | 0.00 | 0.00 | 80 | 1028.3 |
| 20260831021557 | 9 | 198 | 1.6 | 6.4 | 0.00 | 0.00 | 0.00 | 79 | 1028.2 |
| 20260831020050 | 9 | 185 | 1.6 | 4.8 | 0.00 | 0.00 | 0.00 | 78 | 1028.1 |
| 20260831014557 | 10 | 0 | 1.6 | 4.8 | 0.00 | 0.00 | 0.00 | 78 | 1028.2 |
| 20260831013056 | 10 | 192 | 3.2 | 4.8 | 0.00 | 0.00 | 0.00 | 79 | 1028.2 |
| 20260831011551 | 10 | 190 | 1.6 | 3.2 | 0.00 | 0.00 | 0.00 | 78 | 1028.6 |
| 20260831010130 | 10 | 205 | 0.0 | 3.2 | 0.00 | 0.00 | 0.00 | 78 | 1028.6 |
| 20260831004558 | 10 | 173 | 1.6 | 6.4 | 0.00 | 0.00 | 0.00 | 78 | 1028.8 |
| 20260831003055 | 10 | 193 | 1.6 | 6.4 | 0.00 | 0.00 | 0.00 | 79 | 1029.0 |
| 20260831001607 | 10 | 202 | 4.8 | 6.4 | 0.00 | 0.00 | 0.00 | 78 | 1029.1 |
| 20260831000054 | 10 | 186 | 1.6 | 6.4 | 0.00 | 0.00 | 0.00 | 78 | 1029.3 |
| 20260830234600 | 10 | 181 | 1.6 | 6.4 | 0.00 | 0.00 | 0.00 | 78 | 1029.3 |
| 20260830233045 | 10 | 210 | 0.0 | 3.2 | 0.00 | 0.00 | 0.00 | 79 | 1029.3 |
| 20260830231555 | 10 | 210 | 0.0 | 3.2 | 0.00 | 0.00 | 0.00 | 78 | 1029.2 |
| 20260830230055 | 10 | 0 | 0.0 | 0.0 | 0.00 | 0.00 | 0.00 | 77 | 1029.1 |
| 20260830224606 | 11 | 0 | 0.0 | 0.0 | 0.00 | 0.00 | 0.00 | 77 | 1028.9 |
| 20260830223055 | 11 | 210 | 0.0 | 3.2 | 0.00 | 0.00 | 0.00 | 76 | 1029.1 |
| 20260830221555 | 11 | 210 | 0.0 | 3.2 | 0.00 | 0.00 | 0.00 | 76 | 1029.3 |
| 20260830220124 | 11 | 224 | 1.6 | 3.2 | 0.00 | 0.00 | 0.00 | 75 | 1029.5 |
| 20260830214602 | 11 | 192 | 0.0 | 3.2 | 0.00 | 0.00 | 0.00 | 75 | 1029.5 |
| 20260830213102 | 11 | 0 | 0.0 | 4.8 | 0.00 | 0.00 | 0.00 | 75 | 1029.7 |
| 20260830211549 | 11 | 240 | 1.6 | 8.0 | 0.00 | 0.00 | 0.00 | 75 | 1029.9 |
| 20260830204555 | 11 | 223 | 3.2 | 9.7 | 0.00 | 0.00 | 0.00 | 75 | 1030.1 |
| 20260830203105 | 11 | 219 | 4.8 | 8.0 | 0.00 | 0.00 | 0.00 | 76 | 1030.2 |
| 20260830201551 | 11 | 196 | 3.2 | 11.3 | 0.00 | 0.00 | 0.00 | 77 | 1030.3 |
| 20260830200047 | 11 | 216 | 3.2 | 8.0 | 0.00 | 0.00 | 0.00 | 76 | 1030.0 |
| 20260830194557 | 11 | 223 | 3.2 | 6.4 | 0.00 | 0.00 | 0.00 | 76 | 1030.0 |
| 20260830193050 | 11 | 217 | 3.2 | 8.0 | 0.00 | 0.00 | 0.00 | 76 | 1030.1 |
| 20260830191600 | 11 | 202 | 3.2 | 6.4 | 0.00 | 0.00 | 0.00 | 76 | 1029.9 |
| 20260830190058 | 11 | 233 | 1.6 | 6.4 | 0.00 | 0.00 | 0.00 | 78 | 1029.6 |
| 20260830184553 | 11 | 223 | 3.2 | 6.4 | 0.00 | 0.00 | 0.00 | 78 | 1029.6 |
| 20260830183054 | 11 | 228 | 3.2 | 8.0 | 0.00 | 0.00 | 0.00 | 78 | 1029.5 |